Temperature
5 6 5 5 5 5 5 5 5 4 5 6 6 6 6 6 6 6 6 6 7 6 6 6 6 6 6 6 6 6 6 6 6 6 5 5 5 5
5 5 5 5 5 5 5 5 5 5 4 5 5 5 5 5 6 6 6 6 6 6 6 6 6 6 6 6 6 6 5 5 5 5 5 5 5 5
5 5 5 5 5 5 5 5 5 4 4 4 5 5 5 5 5 6 6 6 6 6 6 5 5 5 5 5 5 5 5 5 5 5 5 5 4 4
4 4 4 4 4 4 4 4 4 4 4 4 4 5 5 5 5 5 5 5 5 5 5 5 5 5 5 5 5 5 5 5 4 4 4 4 4 4
4 4 4 4 4 4 4 4 4 4 4 4 4 4 4 4 4 5 5 5 5 5 5 5 5 5 4 5 4 4 4 4 4 4 4 4 3 3
4 4 4 4 4 4 4 4 4 4 4 4 4 4 4 4 4 4 4 4 4 4 4 4 4 4 4 4 4 4 4 4 3 3 3 3 3 3
3 3 3 3 3 3 3 3 3 3 3 3 3 3 3 4 3 3 3 3 4 3 4 4 4 3 3 4 4 4 3 3 3 3 3 3 2 2
3 3 3 3 3 3 3 3 3 3 3 3 3 3 3 3 3 3 2 2 2 3 3 3 3 3 3 3 3 3 3 3 3 3 2 2 2 2
3 3 3 3 3 3 3 2 2 2 2 2 2 2 2 2 2 2 2 2 2 2 2 2 2 2 2 2 3 3 3 3 2 2 2 2 2 2
3 2 2 2 2 2 2 2 2 2 2 2 2 2 2 2 2 1 1 1 1 1 1 1 2 2 2 2 2 2 2 2 2 2 2 1 1 1
2 2 2 2 2 2 2 2 2 2 2 2 2 1 1 1 1 1 1 1 1 1 1 1 1 1 1 1 1 1 1 1 1 1 1 1 1 1
2 2 2 2 2 1 1 1 1 1 1 1 1 1 1 1 1 1 1 1 0 0 0 0 0 -0 -0 -0 0 0 1 1 1 1 1 0 0 0
1 1 1 1 1 1 1 1 1 1 1 1 1 1 1 1 1 1 1 0 0 -0 -0 -0 -0 -1 -1 -1 -1 -0 -0 -0 0 0 0 0 -0 -0
1 1 1 1 1 1 0 0 0 0 0 0 0 0 0 0 0 0 0 0 -0 -0 -1 -1 -1 -1 -1 -1 -1 -1 -1 -1 -1 -0 -0 -0 -0 -0
0 0 0 0 0 0 0 0 0 0 -0 -0 -0 -0 -0 -0 -0 -0 -0 -0 -0 -1 -1 -1 -1 -1 -1 -1 -1 -2 -1 -1 -1 -1 -1 -1 -1 -1
0 -0 -0 -0 -0 -0 -0 -0 -0 -0 -0 -1 -1 -1 -1 -1 -1 -1 -1 -1 -1 -1 -1 -1 -1 -1 -1 -1 -2 -2 -2 -2 -2 -1 -1 -1 -1 -1
-0 -0 -0 -0 -0 -1 -0 -0 -1 -1 -1 -1 -1 -1 -1 -1 -1 -1 -2 -2 -2 -2 -2 -2 -2 -1 -2 -2 -2 -2 -2 -2 -2 -2 -1 -1 -1 -1
-1 -1 -1 -1 -1 -1 -1 -1 -1 -1 -1 -1 -1 -2 -2 -2 -2 -2 -2 -2 -2 -2 -2 -2 -2 -2 -2 -2 -2 -2 -2 -2 -2 -2 -2 -1 -1 -1
-1 -1 -1 -1 -1 -1 -1 -1 -1 -1 -1 -2 -2 -2 -2 -2 -2 -2 -2 -2 -2 -3 -3 -3 -2 -2 -2 -2 -3 -2 -2 -2 -2 -2 -2 -2 -1 -1
-1 -1 -1 -1 -2 -2 -2 -2 -2 -2 -2 -2 -2 -2 -2 -2 -3 -3 -3 -3 -3 -3 -3 -3 -2 -2 -2 -3 -3 -3 -3 -2 -2 -2 -2 -2 -2 -2
-2 -2 -2 -2 -2 -2 -2 -2 -2 -2 -2 -2 -2 -2 -2 -3 -3 -3 -3 -3 -3 -3 -3 -3 -3 -3 -3 -3 -3 -3 -3 -3 -3 -2 -2 -2 -2 -2
-2 -2 -2 -2 -2 -2 -2 -2 -2 -2 -2 -2 -2 -3 -3 -3 -3 -3 -3 -3 -3 -3 -3 -3 -3 -3 -3 -3 -3 -3 -3 -3 -3 -3 -3 -3 -3 -3
-3 -3 -3 -3 -2 -2 -2 -2 -2 -3 -3 -3 -3 -3 -3 -3 -3 -3 -3 -3 -3 -3 -3 -3 -3 -3 -3 -3 -3 -3 -3 -3 -3 -3 -3 -3 -3 -2
Wind_Speed
5 5 4 3 3 3 3 3 3 4 6 4 3 3 3 4 7 7 8 11 11 11 11 10 11 11 12 11 11 10 10 10 9 9 10 10 10 10
4 4 3 2 2 2 3 3 3 4 5 4 3 4 4 5 7 6 8 11 11 10 10 10 10 10 10 10 10 10 9 8 8 9 9 9 10 9
3 3 3 2 2 2 2 2 2 2 5 5 3 4 4 5 5 6 7 6 8 10 10 10 9 9 9 9 8 8 7 7 7 8 8 8 9 8
3 3 3 2 2 2 2 2 2 2 4 6 5 4 4 5 5 5 5 5 5 8 9 9 8 8 8 6 6 6 6 7 6 7 7 8 7 7
3 3 3 3 3 2 2 2 2 3 3 4 5 4 3 3 4 5 4 3 4 7 7 7 7 6 6 5 5 5 5 6 6 6 6 6 5 5
2 3 3 4 4 4 3 3 2 2 2 3 4 4 3 3 3 4 4 3 4 4 5 5 5 5 5 5 5 4 4 5 5 4 2 2 3 3
1 1 2 2 2 2 2 2 2 2 2 2 3 4 3 3 3 2 3 4 4 2 3 3 3 3 4 5 4 4 4 4 3 2 1 1 2 2
0 0 1 1 2 3 3 3 3 2 2 3 3 4 4 4 3 3 3 3 4 2 2 4 2 3 3 3 3 3 3 2 2 1 1 0 2 2
0 0 1 2 3 1 2 3 4 4 4 3 4 4 4 4 3 3 3 3 4 4 3 4 2 3 3 4 3 1 1 1 1 1 1 1 2 2
1 0 0 1 1 1 1 2 3 3 4 3 3 4 4 3 3 3 3 3 3 3 2 2 2 2 3 2 1 2 2 2 2 2 2 1 1 1
1 1 0 0 2 2 1 1 2 3 4 3 3 3 3 4 2 1 1 1 3 3 1 0 1 2 2 1 1 3 3 3 3 3 2 2 1 2
2 2 2 1 2 3 1 0 2 3 2 3 4 4 3 3 4 2 2 2 2 2 1 1 1 1 2 2 1 2 2 3 4 3 3 2 3 2
1 2 1 2 3 4 3 1 2 2 1 2 2 2 2 2 3 3 2 1 2 2 2 1 1 0 0 1 2 2 1 1 2 2 3 3 3 2
0 1 1 3 4 4 3 2 2 2 1 1 1 2 2 2 2 2 1 1 0 2 2 1 1 1 1 1 1 2 2 1 1 2 2 3 3 3
0 1 2 3 4 3 4 3 3 1 1 1 1 2 2 2 2 1 1 2 3 2 2 1 1 1 1 1 1 1 1 1 1 2 2 2 1 1
1 2 3 4 4 3 3 3 2 1 0 1 1 1 1 1 2 1 1 2 2 3 3 3 2 0 0 0 1 1 1 1 1 1 1 2 1 0
1 1 2 2 2 2 2 2 2 1 1 1 0 1 1 1 1 1 1 1 1 2 3 3 3 2 1 1 1 1 0 1 1 1 1 2 2 1
2 1 1 1 1 1 1 1 2 2 1 1 0 0 1 1 1 1 1 1 1 1 2 2 2 2 2 2 0 1 0 0 1 1 1 1 2 2
2 0 1 1 1 1 1 1 1 2 1 1 0 0 0 1 1 1 1 1 1 1 2 2 2 1 1 1 2 1 1 0 1 1 1 1 1 2
1 1 1 1 1 1 1 1 1 1 1 0 0 0 0 0 1 1 0 0 1 1 1 1 1 1 1 1 1 2 1 1 1 1 1 1 1 2
2 1 1 1 1 1 1 1 1 1 1 1 0 0 1 1 1 0 0 1 1 1 1 2 2 1 0 1 2 1 2 3 2 1 1 1 2 2
2 2 2 1 1 1 1 1 1 1 1 1 0 0 1 1 1 1 0 0 0 0 1 1 1 1 2 2 2 2 2 4 5 6 4 2 1 1
3 2 2 2 2 2 1 2 2 2 2 1 1 1 1 0 1 1 0 0 0 1 1 1 2 2 2 2 3 2 3 3 3 4 4 6 5 4
Wind_Direction
205 207 212 218 215 223 218 205 216 272 285 283 291 289 294 291 292 296 291 279 277 276 275 276 276 273 271 270 268 269 272 268 261 256 254 265 256 256
208 199 203 215 217 216 219 226 220 236 270 281 283 302 304 302 304 302 296 293 284 278 277 275 276 275 273 269 267 266 265 259 258 253 251 264 254 254
206 189 200 202 206 222 231 229 231 233 261 287 290 300 303 302 308 312 304 296 291 284 281 279 280 276 273 271 264 261 257 258 256 254 255 262 259 257
205 195 205 207 209 222 231 238 239 242 250 276 294 300 296 299 305 308 306 306 301 296 292 290 286 281 276 269 265 259 256 257 256 256 253 258 265 253
203 200 203 192 226 238 239 244 248 259 253 259 283 295 297 301 311 309 305 305 307 307 304 300 296 287 280 276 268 259 257 257 255 256 251 253 268 260
212 209 209 207 215 222 235 238 246 253 250 262 281 292 295 297 299 303 318 321 313 314 313 308 311 307 296 288 270 260 257 259 259 254 230 259 295 274
227 229 233 240 247 249 246 232 230 243 256 269 280 293 295 305 306 307 311 321 317 308 318 314 322 314 305 296 272 252 250 252 243 208 187 219 303 288
201 25 341 324 307 298 289 278 271 264 255 265 279 282 290 292 297 299 306 322 312 322 323 307 308 293 291 286 268 265 255 211 197 174 175 233 318 291
72 62 351 345 341 356 334 327 323 309 283 268 266 271 270 269 275 292 299 299 288 299 316 299 313 301 296 292 277 234 160 115 92 106 75 2 340 320
46 299 52 330 315 305 334 348 335 323 307 294 260 271 272 267 257 263 272 294 298 303 308 284 320 317 315 295 201 132 99 63 55 68 57 37 4 8
17 19 75 266 291 312 352 347 331 325 329 325 303 303 302 305 298 289 285 302 301 305 316 355 347 340 341 353 42 79 69 51 39 45 49 41 47 62
7 354 337 322 309 321 328 333 322 315 336 358 1 357 349 343 343 325 267 257 278 290 301 355 325 6 357 350 20 19 40 39 29 28 30 50 75 71
350 335 331 336 332 328 319 304 271 293 341 355 348 350 352 354 352 351 336 253 245 259 268 302 263 313 281 316 347 359 21 26 14 15 33 57 54 66
324 313 314 329 333 334 333 338 334 342 11 4 352 345 342 340 340 345 16 47 325 263 279 266 230 209 235 303 306 339 2 18 24 8 7 24 30 27
346 333 332 335 346 1 11 354 342 2 31 348 323 319 317 315 329 351 30 46 37 19 353 323 244 229 209 222 254 297 331 345 11 17 4 357 346 357
4 4 360 4 6 7 356 350 351 346 264 255 275 298 333 353 354 2 21 14 23 9 10 11 348 238 213 183 194 233 270 269 312 353 352 335 335 15
341 5 10 2 6 358 357 352 350 346 334 321 314 323 341 2 359 15 36 31 38 3 0 13 17 36 63 193 207 195 248 312 263 312 2 340 326 338
2 27 338 321 314 317 332 338 340 333 331 338 349 327 349 12 26 37 54 59 38 354 329 327 351 20 35 27 141 182 176 290 323 350 24 325 315 333
17 22 292 278 284 277 277 295 304 312 325 334 325 346 32 46 53 36 45 47 10 331 308 309 332 20 39 348 347 38 153 166 13 21 357 311 272 308
4 300 288 283 276 253 254 271 291 315 317 299 315 327 182 136 91 47 29 32 337 327 330 327 319 296 212 217 277 334 2 156 136 44 12 20 5 360
318 300 288 285 277 255 249 248 247 252 252 231 225 219 168 137 128 99 55 357 345 327 333 314 297 338 50 83 84 34 15 28 71 134 110 64 40 28
296 288 282 269 262 257 247 238 241 242 229 235 235 186 164 154 156 161 148 75 354 339 312 318 345 30 70 99 101 84 46 33 41 47 56 67 110 120
282 277 272 265 259 253 246 242 242 234 216 211 201 193 180 166 152 145 140 120 70 33 32 16 18 48 74 97 102 98 78 57 47 44 36 28 41 54
Height
1420 1422 1423 1425 1426 1427 1428 1428 1428 1426 1424 1424 1426 1427 1427 1426 1426 1425 1424 1423 1423 1423 1423 1422 1422 1422 1421 1421 1422 1422 1423 1423 1423 1424 1424 1424 1425 1425
1416 1418 1419 1421 1422 1423 1424 1424 1425 1424 1422 1421 1422 1422 1422 1422 1421 1420 1419 1418 1418 1417 1417 1417 1416 1416 1415 1415 1416 1416 1417 1417 1417 1418 1418 1418 1419 1419
1413 1414 1415 1417 1418 1419 1419 1420 1421 1421 1419 1417 1418 1418 1417 1417 1415 1415 1414 1413 1412 1412 1411 1411 1411 1410 1410 1410 1410 1411 1411 1412 1412 1412 1413 1413 1413 1413
1409 1411 1412 1413 1414 1415 1416 1416 1416 1417 1417 1413 1413 1413 1413 1413 1411 1410 1409 1408 1407 1407 1406 1406 1405 1405 1404 1404 1404 1405 1406 1406 1407 1407 1408 1408 1407 1407
1407 1407 1408 1409 1410 1411 1412 1412 1413 1413 1413 1411 1409 1409 1409 1408 1407 1406 1404 1403 1403 1402 1402 1401 1400 1399 1399 1399 1399 1400 1401 1402 1402 1402 1403 1403 1402 1402
1404 1405 1405 1406 1407 1408 1408 1409 1409 1409 1409 1407 1406 1405 1405 1404 1403 1401 1399 1399 1398 1398 1397 1396 1395 1394 1394 1394 1394 1395 1396 1397 1398 1398 1398 1398 1398 1398
1401 1402 1403 1404 1404 1405 1405 1405 1406 1406 1405 1404 1403 1402 1401 1401 1400 1398 1397 1395 1394 1394 1393 1392 1391 1390 1389 1390 1390 1391 1392 1393 1393 1393 1394 1394 1395 1394
1399 1400 1400 1401 1401 1402 1403 1403 1403 1403 1402 1402 1400 1399 1398 1398 1397 1396 1394 1392 1390 1391 1389 1388 1387 1386 1386 1386 1386 1387 1387 1388 1389 1390 1390 1391 1391 1391
1396 1397 1397 1398 1399 1399 1399 1399 1399 1399 1400 1399 1397 1396 1396 1395 1394 1393 1392 1390 1388 1388 1386 1383 1384 1383 1383 1383 1383 1383 1383 1385 1385 1386 1387 1388 1388 1388
1395 1395 1396 1396 1397 1397 1396 1396 1395 1395 1395 1395 1394 1393 1393 1392 1392 1391 1390 1388 1386 1385 1384 1382 1381 1380 1380 1380 1380 1380 1381 1382 1383 1383 1384 1384 1385 1385
1394 1394 1394 1394 1395 1395 1394 1393 1392 1392 1392 1392 1391 1390 1390 1390 1389 1389 1387 1386 1384 1383 1383 1381 1380 1379 1378 1378 1379 1379 1379 1380 1381 1381 1381 1382 1382 1383
1392 1392 1393 1393 1392 1392 1392 1391 1390 1389 1389 1388 1388 1387 1387 1387 1387 1386 1385 1384 1383 1382 1381 1381 1379 1378 1377 1377 1377 1378 1378 1378 1379 1379 1379 1379 1380 1380
1390 1390 1390 1390 1390 1390 1389 1389 1388 1387 1386 1386 1385 1385 1385 1385 1384 1384 1383 1383 1382 1381 1381 1380 1378 1377 1377 1376 1376 1377 1377 1377 1377 1377 1377 1378 1378 1378
1388 1388 1388 1388 1388 1387 1387 1386 1386 1385 1384 1384 1383 1382 1382 1382 1381 1381 1381 1380 1380 1379 1379 1378 1377 1376 1375 1374 1374 1375 1375 1376 1376 1376 1376 1377 1377 1377
1386 1386 1386 1386 1385 1384 1384 1384 1383 1383 1382 1381 1380 1380 1380 1380 1379 1379 1378 1378 1377 1377 1377 1376 1376 1375 1374 1373 1372 1373 1373 1374 1375 1375 1375 1375 1375 1375
1384 1384 1384 1383 1383 1382 1382 1381 1381 1380 1380 1379 1378 1378 1378 1378 1377 1377 1376 1376 1375 1375 1375 1375 1374 1374 1373 1372 1372 1372 1373 1373 1373 1374 1375 1375 1375 1374
1382 1382 1381 1381 1380 1380 1379 1379 1379 1378 1377 1377 1376 1376 1376 1376 1376 1376 1375 1374 1374 1373 1373 1373 1373 1372 1372 1372 1372 1372 1372 1372 1373 1373 1373 1374 1374 1373
1381 1379 1379 1379 1378 1378 1377 1377 1377 1376 1375 1375 1374 1374 1374 1374 1374 1374 1374 1374 1373 1373 1373 1372 1372 1371 1372 1371 1372 1371 1371 1372 1372 1373 1373 1373 1373 1373
1378 1377 1377 1377 1376 1376 1376 1375 1375 1374 1374 1373 1373 1373 1373 1373 1373 1373 1373 1373 1373 1373 1373 1372 1372 1371 1370 1370 1371 1372 1371 1371 1372 1373 1373 1373 1373 1373
1376 1376 1375 1375 1374 1374 1374 1374 1373 1373 1372 1372 1372 1372 1372 1372 1372 1372 1373 1373 1373 1372 1372 1372 1371 1371 1370 1370 1370 1371 1372 1372 1372 1372 1373 1373 1373 1374
1374 1374 1373 1373 1372 1372 1372 1372 1371 1371 1371 1371 1371 1371 1371 1372 1372 1372 1372 1372 1372 1371 1371 1370 1371 1371 1370 1370 1370 1371 1372 1373 1373 1373 1373 1373 1373 1373
1372 1372 1371 1371 1371 1370 1370 1369 1369 1369 1369 1369 1369 1370 1370 1371 1371 1371 1371 1371 1371 1371 1370 1370 1370 1370 1370 1370 1370 1371 1372 1374 1374 1375 1375 1375 1374 1374
1370 1370 1369 1369 1368 1368 1368 1367 1367 1367 1368 1368 1368 1368 1369 1369 1370 1370 1371 1371 1371 1370 1370 1370 1370 1370 1370 1371 1372 1372 1373 1374 1375 1376 1377 1377 1377 1377